Date String (YYYY-MM-DD hh:mm:ss) UTC,Instrument flags,absolute air pressure of the measurement (hPa),sample flow rate (lpm),inlet stack bypass flow (lpm),air temperature of the measurement (°C),ambient temperature measured by the external sensor (°C),aerosol sample conditioner tube jacket temperature (°C),OPC LED temperature (°C),internal box temperature (°C),relative humidity of the measurement (%),span deviation,mass concentration of particles derived from Lorenz-Mie calculation of OPC scattering (μg/m³),mass concentration of particles derived from Lorenz-Mie calculation of OPC scattering (μg/m³),mass concentration of particles derived from Lorenz-Mie calculation of OPC scattering (μg/m³)
DateTimeUTC,F1_M11,P_M11,Q1_M11,Q2_M11,T1_M11,T2_M11,T3_M11,T4_M11,T5_M11,U1_M11,ZSPAN_M11,X0_M11,X2_M11,X1_M11
2023-06-04 08:00:00,SystemResetWarning,0833.2,5.00,000.00,030.4,028.8,000.0,038.8,032.0,26.7,0000.0,0003.31,0002.36,0001.90
2023-06-04 08:01:00,SystemResetWarning,0833.2,5.01,000.00,030.4,028.8,000.0,038.8,032.0,26.7,0000.0,0003.19,0002.30,0001.88
2023-06-04 08:02:00,SystemResetWarning,0833.2,5.00,000.00,030.4,028.8,000.0,038.8,032.0,26.7,0000.0,0003.30,0002.28,0001.89
2023-06-04 08:03:00,SystemResetWarning,0833.2,5.00,000.00,030.4,028.8,000.0,038.8,032.0,26.5,0000.0,0003.76,0002.27,0001.89
2023-06-04 08:04:00,SystemResetWarning,0833.2,5.00,000.00,030.4,028.8,000.0,038.8,032.0,26.1,0000.0,0003.82,0002.30,0001.88
2023-06-04 08:05:00,SystemResetWarning,0833.2,5.00,000.00,030.4,028.8,000.0,038.8,032.0,26.0,0000.0,0003.79,0002.30,0001.89
2023-06-04 08:06:00,SystemResetWarning,0833.2,5.00,000.00,030.4,028.8,000.0,038.8,032.0,26.3,0000.0,0004.47,0002.33,0001.90
2023-06-04 08:07:00,SystemResetWarning,0833.2,5.00,000.00,030.4,028.8,000.0,038.8,032.0,26.2,0000.0,0004.83,0002.33,0001.92
2023-06-04 08:08:00,SystemResetWarning,0833.2,5.00,000.00,030.4,028.8,000.0,038.8,032.0,26.1,0000.0,0004.81,0002.31,0001.92
2023-06-04 08:09:00,SystemResetWarning,0833.2,5.00,000.00,030.4,028.8,000.0,038.8,032.0,26.0,0000.0,0005.07,0002.36,0001.93
2023-06-04 08:10:00,SystemResetWarning,0833.2,5.00,000.00,030.4,028.8,000.0,038.8,032.0,25.9,0000.0,0005.07,0002.36,0001.95
2023-06-04 08:11:00,SystemResetWarning,0833.2,5.00,000.00,030.4,028.8,000.0,038.8,032.0,26.0,0000.0,0005.17,0002.34,0001.96
2023-06-04 08:12:00,SystemResetWarning,0833.2,5.00,000.00,030.4,028.8,000.0,038.8,032.0,26.0,0000.0,0006.19,0002.36,0001.97
2023-06-04 08:13:00,SystemResetWarning,0833.2,5.00,000.00,030.4,028.8,000.0,038.8,032.0,25.9,0000.0,0006.10,0002.36,0001.99
2023-06-04 08:14:00,SystemResetWarning,0833.2,5.00,000.00,030.4,028.8,000.0,038.8,032.0,26.0,0000.0,0005.49,0002.37,0002.01
2023-06-04 08:15:00,SystemResetWarning,0833.2,5.01,000.00,030.4,028.8,000.0,038.8,032.0,26.2,0000.0,0005.44,0002.36,0002.02
2023-06-04 08:16:00,SystemResetWarning,0833.3,5.00,000.00,030.4,028.8,000.0,038.8,032.0,26.1,0000.0,0005.44,0002.37,0002.03
2023-06-04 08:17:00,SystemResetWarning,0833.3,5.00,000.00,030.4,028.8,000.0,038.8,032.0,26.1,0000.0,0004.95,0002.35,0002.04
2023-06-04 08:18:00,SystemResetWarning,0833.2,4.99,000.00,030.4,028.8,000.0,038.8,032.0,26.1,0000.0,0004.35,0002.35,0002.05
2023-06-04 08:19:00,SystemResetWarning,0833.3,5.00,000.00,030.4,028.8,000.0,038.8,032.0,26.1,0000.0,0004.39,0002.38,0002.06
2023-06-04 08:20:00,SystemResetWarning,0833.3,5.01,000.00,030.4,028.8,000.0,038.8,032.0,26.3,0000.0,0004.21,0002.38,0002.07
2023-06-04 08:21:00,SystemResetWarning,0833.3,5.01,000.00,030.4,028.8,000.0,038.8,032.0,26.5,0000.0,0004.11,0002.37,0002.08
2023-06-04 08:22:00,SystemResetWarning,0833.3,5.01,000.00,030.4,028.8,000.0,038.8,032.0,26.4,0000.0,0004.20,0002.43,0002.10
2023-06-04 08:23:00,SystemResetWarning,0833.2,4.99,000.00,030.4,028.9,000.0,038.8,032.0,26.4,0000.0,0003.11,0002.46,0002.12
2023-06-04 08:24:00,SystemResetWarning,0833.2,4.99,000.00,030.4,028.9,000.0,038.8,032.0,26.5,0000.0,0003.16,0002.49,0002.13
2023-06-04 08:25:00,SystemResetWarning,0833.2,4.99,000.00,030.4,028.9,000.0,038.8,032.0,26.8,0000.0,0003.24,0002.50,0002.13
2023-06-04 08:26:00,SystemResetWarning,0833.3,5.00,000.00,030.4,028.9,000.0,038.8,032.0,27.3,0000.0,0003.24,0002.50,0002.14
2023-06-04 08:27:00,SystemResetWarning,0833.2,5.00,000.00,030.4,028.9,000.0,038.8,032.0,27.7,0000.0,0003.22,0002.48,0002.14
2023-06-04 08:28:00,SystemResetWarning,0833.2,5.00,000.00,030.4,028.9,000.0,038.8,032.0,28.0,0000.0,0003.18,0002.48,0002.15
2023-06-04 08:29:00,SystemResetWarning,0833.3,5.01,000.00,030.4,028.9,000.0,038.8,032.0,28.2,0000.0,0003.20,0002.51,0002.19
2023-06-04 08:30:00,SystemResetWarning,0833.2,5.01,000.00,030.4,028.9,000.0,038.8,032.1,28.2,0000.0,0003.25,0002.56,0002.24
2023-06-04 08:31:00,SystemResetWarning,0833.2,4.98,000.00,030.4,028.9,000.0,038.8,032.1,28.2,0000.0,0003.41,0002.62,0002.31
2023-06-04 08:32:00,SystemResetWarning,0833.3,4.99,000.00,030.4,028.9,000.0,038.8,032.0,28.2,0000.0,0003.57,0002.69,0002.36
2023-06-04 08:33:00,SystemResetWarning,0833.2,5.00,000.00,030.4,028.9,000.0,038.8,032.1,28.2,0000.0,0003.67,0002.75,0002.42
2023-06-04 08:34:00,SystemResetWarning,0833.3,5.00,000.00,030.4,028.9,000.0,038.8,032.1,28.2,0000.0,0003.75,0002.80,0002.47
2023-06-04 08:35:00,SystemResetWarning,0833.2,5.01,000.00,030.4,028.9,000.0,038.8,032.1,28.2,0000.0,0003.95,0002.86,0002.53
2023-06-04 08:36:00,SystemResetWarning,0833.3,5.00,000.00,030.4,028.9,000.0,038.8,032.1,28.2,0000.0,0004.15,0002.92,0002.59
2023-06-04 08:37:00,SystemResetWarning,0833.2,5.00,000.00,030.4,028.9,000.0,038.8,032.1,28.2,0000.0,0004.31,0003.04,0002.65
2023-06-04 08:38:00,SystemResetWarning,0833.3,4.99,000.00,030.4,028.9,000.0,038.8,032.1,28.2,0000.0,0004.51,0003.11,0002.73
2023-06-04 08:39:00,SystemResetWarning,0833.3,5.00,000.00,030.4,028.9,000.0,038.8,032.0,28.2,0000.0,0004.69,0003.15,0002.78
2023-06-04 08:40:00,SystemResetWarning,0833.4,5.00,000.00,030.4,028.9,000.0,038.8,032.0,28.2,0000.0,0004.92,0003.20,0002.82
2023-06-04 08:41:00,SystemResetWarning,0833.4,5.00,000.00,030.4,028.9,000.0,038.8,032.0,28.2,0000.0,0005.02,0003.22,0002.82
2023-06-04 08:42:00,SystemResetWarning,0833.4,5.00,000.00,030.4,028.9,000.0,038.8,032.0,28.2,0000.0,0004.92,0003.23,0002.83
2023-06-04 08:43:00,SystemResetWarning,0833.4,5.01,000.00,030.4,028.9,000.0,038.8,032.1,28.2,0000.0,0004.86,0003.22,0002.82
2023-06-04 08:44:00,SystemResetWarning,0833.4,5.01,000.00,030.4,028.9,000.0,038.8,032.1,28.2,0000.0,0004.80,0003.20,0002.81
2023-06-04 08:45:00,SystemResetWarning,0833.4,5.00,000.00,030.4,028.9,000.0,038.9,032.1,28.0,0000.0,0004.75,0003.17,0002.78
2023-06-04 08:46:00,SystemResetWarning,0833.4,5.01,000.00,030.4,028.9,000.0,038.8,032.1,27.9,0000.0,0004.51,0003.14,0002.76
2023-06-04 08:47:00,SystemResetWarning,0833.4,4.99,000.00,030.4,028.9,000.0,038.8,032.1,27.9,0000.0,0004.27,0003.11,0002.74
2023-06-04 08:48:00,SystemResetWarning,0833.4,4.99,000.00,030.4,028.9,000.0,038.8,032.1,27.8,0000.0,0004.16,0003.06,0002.70
2023-06-04 08:49:00,SystemResetWarning,0833.4,4.99,000.00,030.4,028.9,000.0,038.8,032.1,27.8,0000.0,0003.99,0003.01,0002.66
2023-06-04 08:50:00,SystemResetWarning,0833.4,5.00,000.00,030.4,028.9,000.0,038.8,032.1,27.8,0000.0,0003.91,0002.96,0002.63
2023-06-04 08:51:00,SystemResetWarning,0833.4,4.99,000.00,030.4,028.9,000.0,038.8,032.1,27.8,0000.0,0003.77,0002.89,0002.59
2023-06-04 08:52:00,SystemResetWarning,0833.4,5.01,000.00,030.4,028.9,000.0,038.9,032.1,27.8,0000.0,0003.70,0002.85,0002.57
2023-06-04 08:53:00,SystemResetWarning,0833.4,5.01,000.00,030.4,028.9,000.0,038.9,032.1,27.8,0000.0,0003.89,0002.80,0002.54
2023-06-04 08:54:00,SystemResetWarning,0833.4,5.00,000.00,030.4,028.9,000.0,038.8,032.1,27.9,0000.0,0004.17,0002.83,0002.52
2023-06-04 08:55:00,SystemResetWarning,0833.4,4.99,000.00,030.5,028.9,000.0,038.8,032.1,27.8,0000.0,0004.06,0002.80,0002.50
2023-06-04 08:56:00,SystemResetWarning,0833.4,4.99,000.00,030.4,028.9,000.0,038.9,032.1,27.7,0000.0,0004.03,0002.79,0002.49
2023-06-04 08:57:00,SystemResetWarning,0833.4,4.99,000.00,030.4,028.9,000.0,038.8,032.1,27.7,0000.0,0004.01,0002.78,0002.47
2023-06-04 08:58:00,SystemResetWarning,0833.4,5.00,000.00,030.5,028.9,000.0,038.9,032.1,27.7,0000.0,0004.00,0002.79,0002.47
2023-06-04 08:59:00,SystemResetWarning,0833.4,5.00,000.00,030.5,028.9,000.0,038.9,032.1,27.7,0000.0,0004.03,0002.80,0002.48
